RH
45 47 48 47 47 47 45 44 42 40 39 40 39 37 33 32 34 35 35 36 37 37 38 39 41 43 43 43 43 45 46 48 49 50 50 51 52 53 53 53 53 52 50 45 40 36 32 31 32 34 35 33 30 30 32 37 41 45 48 49 51 53 55
41 42 43 43 44 45 45 44 43 42 42 42 40 37 33 31 33 34 36 36 36 36 37 37 39 41 42 42 42 43 43 44 45 46 46 46 46 47 48 47 44 39 34 29 27 29 31 32 34 37 40 41 40 41 44 49 52 56 58 61 62 63 64
36 37 39 39 40 40 41 42 42 42 42 40 38 36 34 32 32 35 36 37 37 37 38 38 40 41 43 44 45 45 45 45 46 47 47 46 46 46 43 40 35 30 29 30 32 36 40 42 45 50 52 52 53 56 59 62 64 67 68 69 69 68 67
33 35 36 37 38 39 42 43 43 44 43 42 42 40 37 35 34 35 36 37 38 39 41 41 42 42 44 45 47 46 45 46 47 48 47 46 44 41 38 36 35 34 36 38 41 43 46 50 53 56 58 61 63 65 66 68 70 70 68 67 66 64 61
34 34 35 35 37 38 39 40 40 42 44 47 47 46 45 43 40 39 38 38 40 42 44 44 44 45 44 43 43 42 41 40 41 42 42 41 40 39 41 43 44 42 42 44 47 51 54 56 60 62 63 64 66 66 67 68 68 65 63 62 60 56 49
34 35 35 35 37 37 36 35 37 39 41 44 45 46 48 46 44 43 42 41 43 45 45 45 45 44 42 39 39 39 38 37 37 37 39 40 42 43 46 49 50 49 49 51 54 57 59 61 62 63 63 63 64 65 65 64 62 60 58 56 51 45 39
33 33 34 36 38 38 38 38 39 40 41 43 43 43 44 43 42 43 44 44 43 42 42 42 42 41 39 38 40 41 40 40 40 42 43 44 45 47 49 51 53 53 54 55 56 58 60 61 62 62 63 63 62 61 60 59 58 56 52 46 40 34 32
34 34 35 38 40 39 40 41 42 43 45 46 45 43 41 40 39 40 44 45 43 40 39 38 38 38 38 39 42 44 44 43 44 46 46 47 49 51 52 52 53 53 54 55 55 56 56 56 57 58 58 56 56 56 56 56 54 49 44 38 34 31 29
35 37 38 40 40 40 41 43 43 45 47 48 48 46 41 39 39 42 45 44 41 38 37 36 36 37 39 41 43 44 45 45 46 47 47 48 51 51 51 51 51 52 53 54 53 53 53 53 53 53 52 53 54 54 52 50 47 42 38 34 31 29 27
37 38 40 41 41 42 43 44 44 46 48 49 51 50 45 41 42 44 45 42 38 36 36 36 36 38 40 42 43 44 45 45 46 47 48 50 51 50 50 50 51 52 53 53 53 53 53 51 51 51 52 53 53 49 44 41 38 35 32 30 28 27 27
36 38 41 43 43 43 43 45 46 47 49 52 54 53 50 46 44 45 45 41 38 37 37 36 38 40 42 42 43 43 45 45 46 48 50 51 50 49 49 50 51 52 53 54 53 53 51 51 51 52 54 54 50 42 36 33 31 29 29 27 27 28 26
35 37 40 43 42 42 44 46 47 47 51 56 57 56 54 51 47 46 44 42 39 38 38 39 41 43 43 42 42 44 45 46 47 48 50 52 52 51 49 50 52 52 53 54 53 52 51 51 53 53 52 48 42 35 30 28 28 28 28 27 27 27 25
34 37 39 41 41 41 44 47 48 49 54 59 60 58 57 52 48 47 45 42 40 39 39 41 42 44 44 43 43 45 46 46 48 51 53 54 54 53 52 53 53 53 53 52 51 51 50 50 49 46 43 39 34 30 29 29 28 28 28 27 26 25 24
33 36 38 41 42 42 45 47 48 51 57 60 60 58 56 51 47 46 45 41 40 40 41 43 44 43 43 44 45 46 46 48 51 54 55 56 55 54 53 54 53 52 51 49 48 48 48 48 45 40 37 34 31 29 29 29 29 27 26 25 24 23 24
34 36 39 42 44 43 45 48 49 51 57 60 59 58 56 50 45 45 43 41 40 41 43 45 45 44 44 45 46 46 48 51 53 55 56 55 53 52 51 50 49 48 46 45 44 45 46 46 43 38 35 32 30 29 30 29 27 26 25 24 23 23 23
35 38 40 44 46 45 45 48 50 51 54 55 56 56 53 47 43 42 42 40 40 42 44 46 45 43 44 45 45 47 49 51 53 53 51 49 49 48 47 45 42 41 40 40 41 42 44 43 40 36 33 31 30 30 29 27 25 24 24 23 23 24 20
35 38 42 44 46 46 45 47 49 50 52 52 52 52 51 48 44 42 42 41 40 42 45 47 45 43 42 43 44 47 49 50 50 47 45 47 49 49 49 46 40 36 37 38 39 39 39 37 35 33 31 30 30 29 27 26 24 24 23 23 23 21 15
35 38 43 45 45 45 45 46 48 48 49 52 52 52 53 51 47 45 46 43 42 44 47 48 47 45 44 44 45 46 47 48 48 46 46 51 53 53 56 56 49 40 36 37 37 36 34 32 32 32 31 31 30 28 25 24 24 24 24 23 20 16 13
35 38 42 46 46 44 43 45 48 47 47 49 52 52 52 52 48 47 47 45 44 46 49 50 49 46 45 45 45 45 46 47 48 47 48 52 51 51 56 62 60 49 39 36 36 34 33 32 31 32 32 31 29 26 24 23 24 24 22 18 15 15 16
35 37 41 46 47 44 43 46 48 47 46 49 51 52 54 54 51 48 47 46 47 49 51 52 51 47 44 42 42 43 45 47 47 47 48 49 48 48 51 57 60 53 42 36 35 34 33 33 32 32 31 29 26 25 24 23 22 20 17 15 15 17 20
36 38 41 46 47 44 43 46 49 48 47 50 53 55 56 55 52 50 49 48 49 52 54 55 52 48 44 41 40 41 44 48 50 51 52 51 51 53 54 52 51 47 41 37 36 35 34 33 32 32 30 28 26 24 22 21 19 16 14 16 18 20 21
39 40 42 47 49 47 46 47 48 48 49 52 55 56 56 54 53 52 51 50 51 54 57 58 54 50 46 43 42 45 49 54 57 59 58 56 54 57 57 52 47 42 38 37 37 35 33 33 33 32 29 25 22 21 19 18 16 15 16 19 20 20 18
43 43 43 46 49 48 48 49 49 49 51 54 54 55 55 54 54 54 54 53 53 56 59 58 56 52 49 47 49 52 57 60 61 62 62 60 59 60 57 51 45 40 37 37 36 34 33 34 32 28 24 20 19 18 17 16 16 17 19 21 19 16 12
43 43 43 46 48 48 49 52 51 50 53 54 53 55 57 56 55 56 56 54 55 58 61 60 58 58 54 53 55 57 60 62 63 62 61 61 64 63 54 46 42 39 37 36 34 33 33 31 27 21 19 18 17 16 16 16 17 19 20 19 14 10 8
41 43 44 46 49 50 51 54 53 50 52 54 53 55 58 57 55 56 57 56 56 60 63 61 60 60 57 55 56 58 61 64 64 62 61 62 65 61 50 42 40 38 36 35 34 34 30 25 20 17 16 15 14 14 15 16 17 18 16 12 9 8 10
42 44 45 46 48 49 49 53 54 51 51 52 52 54 56 56 55 56 57 56 56 59 61 59 58 58 56 56 58 61 65 67 65 63 63 63 62 57 47 41 38 35 34 34 33 29 24 19 17 15 13 13 13 12 13 14 13 12 9 7 10 13 16
43 45 47 47 47 46 46 47 49 50 51 52 52 52 52 51 53 55 56 55 54 56 58 57 55 55 55 57 59 64 68 68 65 65 67 63 57 51 45 39 35 32 31 30 28 24 19 16 15 14 13 12 11 10 10 9 7 7 9 12 17 20 21
44 46 47 47 46 46 47 47 49 52 54 54 54 52 49 47 49 51 53 53 54 56 58 58 57 57 58 59 61 65 68 68 67 69 71 64 54 46 40 34 31 29 28 27 24 19 16 15 15 14 12 9 8 7 6 6 8 11 15 19 22 24 23
42 43 43 45 46 48 49 51 52 53 55 56 55 54 51 50 49 49 50 52 53 56 60 62 62 62 61 61 65 69 69 69 70 71 69 60 48 39 34 30 29 29 28 26 21 17 16 16 14 11 8 6 6 6 7 10 14 17 19 22 23 23 23
40 41 41 43 45 48 51 53 54 52 53 55 56 55 55 55 54 52 51 51 54 57 60 62 65 66 64 65 70 74 71 69 70 67 59 48 39 33 30 29 30 30 28 24 20 19 17 14 10 7 6 6 7 9 12 15 18 19 20 21 22 23 24
38 40 42 43 45 50 54 55 55 55 56 57 57 59 62 62 59 57 54 53 55 57 58 61 63 64 64 66 70 72 69 66 64 58 47 38 33 31 30 30 32 30 26 22 19 16 13 9 7 7 7 8 9 12 15 17 18 20 20 21 22 23 23
36 40 43 46 50 58 62 62 61 60 60 60 58 60 64 64 61 60 59 56 57 58 59 61 61 60 62 66 69 70 68 61 53 46 39 34 32 31 30 32 32 29 23 18 14 11 8 8 8 8 8 9 11 14 17 18 19 19 19 21 22 23 22
36 40 47 51 56 61 65 68 69 65 60 59 59 59 59 59 58 61 62 60 60 62 64 63 61 61 64 68 69 68 61 51 43 40 36 33 30 30 31 32 30 24 17 14 11 10 10 9 9 9 9 10 13 18 20 21 20 19 18 20 21 21 21
38 42 48 52 54 52 51 56 64 64 61 62 63 61 58 56 56 59 62 61 61 65 69 69 68 68 67 68 68 62 51 43 41 39 36 33 31 31 32 31 25 18 14 12 11 12 11 10 10 10 10 12 17 20 22 22 21 19 19 20 21 20 21
40 42 45 49 52 50 48 51 57 60 61 62 65 66 63 57 54 56 58 57 58 62 67 71 73 75 72 68 63 54 45 41 40 39 36 34 32 31 30 26 20 16 14 13 13 13 12 11 10 10 12 16 20 21 21 21 21 20 20 21 20 21 22
40 42 45 48 51 52 53 54 54 56 58 59 62 68 67 58 54 55 55 55 57 62 66 67 68 72 74 68 56 46 43 42 40 39 37 35 34 32 29 23 18 17 15 14 14 14 13 11 11 11 15 19 21 21 21 21 19 18 20 20 20 21 22
38 42 45 47 50 52 55 56 55 56 58 59 62 68 68 61 56 55 56 57 60 63 67 66 62 64 66 60 49 44 43 41 39 39 38 36 35 32 27 20 17 17 16 16 16 16 14 12 12 14 17 19 21 21 21 20 18 19 19 18 19 20 21
36 40 44 47 49 51 57 61 59 56 55 58 62 66 66 64 61 58 58 61 60 61 65 66 62 59 57 51 45 44 43 41 40 39 38 37 35 30 24 19 17 17 17 17 17 17 15 14 14 16 18 19 20 21 20 19 18 18 18 18 18 20 21